Previsão horária em Abay (Tyulkubasskiy rayon)

Hoje, 22 Janeiro, Sexta-feira

Tempo Temperatura Precipitação Vento Pressão Humidade
00:00 +4°C° 0.9 mm 3 m/s 700 mmHg 75%
01:00 +2°C° 0.9 mm 3 m/s 700 mmHg 86%
02:00 +1°C° 0.9 mm 3 m/s 700 mmHg 96%
03:00 -1°C° 2.6 mm 4 m/s 701 mmHg 96%
04:00 -4°C° 2.6 mm 6 m/s 703 mmHg 96%
05:00 -6°C° 2.6 mm 8 m/s 704 mmHg 96%
06:00 -8°C° 2 mm 7 m/s 705 mmHg 95%
07:00 -9°C° 2 mm 7 m/s 707 mmHg 95%
08:00 -11°C° 2 mm 7 m/s 709 mmHg 94%
09:00 -11°C° 1 mm 7 m/s 710 mmHg 94%
10:00 -12°C° 1 mm 7 m/s 711 mmHg 94%
11:00 -12°C° 1 mm 7 m/s 712 mmHg 94%
12:00 -12°C° 0.4 mm 7 m/s 713 mmHg 94%
13:00 -12°C° 0.4 mm 7 m/s 713 mmHg 93%
14:00 -12°C° 0.4 mm 7 m/s 714 mmHg 93%
15:00 -13°C° 0.2 mm 7 m/s 714 mmHg 93%
16:00 -13°C° 0.2 mm 7 m/s 715 mmHg 93%
17:00 -12°C° 0.2 mm 6 m/s 715 mmHg 94%
18:00 -12°C° 0.1 mm 5 m/s 716 mmHg 94%
19:00 -12°C° 0.1 mm 4 m/s 716 mmHg 95%
20:00 -12°C° 0.1 mm 3 m/s 716 mmHg 95%
21:00 -12°C° 0.1 mm 3 m/s 716 mmHg 94%
22:00 -12°C° 0.1 mm 3 m/s 716 mmHg 93%
23:00 -12°C° 0.1 mm 3 m/s 716 mmHg 93%

Amanhã, 23 Janeiro, Sábado

Tempo Temperatura Precipitação Vento Pressão Humidade
00:00 -12°C° 0 mm 4 m/s 716 mmHg 93%
01:00 -12°C° 0 mm 4 m/s 716 mmHg 92%
02:00 -12°C° 0 mm 5 m/s 716 mmHg 92%
03:00 -12°C° 0.3 mm 6 m/s 716 mmHg 93%
04:00 -12°C° 0.3 mm 6 m/s 716 mmHg 93%
05:00 -13°C° 0.3 mm 7 m/s 716 mmHg 94%
06:00 -13°C° 0.2 mm 7 m/s 716 mmHg 93%
07:00 -12°C° 0.2 mm 7 m/s 716 mmHg 93%
08:00 -11°C° 0.2 mm 6 m/s 717 mmHg 92%
09:00 -11°C° 0.1 mm 8 m/s 717 mmHg 87%
10:00 -11°C° 0.1 mm 9 m/s 716 mmHg 82%
11:00 -10°C° 0.1 mm 10 m/s 716 mmHg 77%
12:00 -9°C° 0.1 mm 10 m/s 716 mmHg 77%
13:00 -9°C° 0.1 mm 10 m/s 716 mmHg 76%
14:00 -9°C° 0.1 mm 11 m/s 716 mmHg 76%
15:00 -9°C° 0.2 mm 10 m/s 716 mmHg 76%
16:00 -9°C° 0.2 mm 10 m/s 716 mmHg 77%
17:00 -9°C° 0.2 mm 10 m/s 715 mmHg 78%
18:00 -9°C° 0.2 mm 10 m/s 716 mmHg 80%
19:00 -9°C° 0.2 mm 9 m/s 717 mmHg 82%
20:00 -9°C° 0.2 mm 9 m/s 717 mmHg 83%
21:00 -8°C° 0.2 mm 9 m/s 717 mmHg 84%
22:00 -7°C° 0.2 mm 8 m/s 718 mmHg 85%
23:00 -7°C° 0.2 mm 8 m/s 718 mmHg 86%

Depois de amanhã, 24 Janeiro, Domingo

Tempo Temperatura Precipitação Vento Pressão Humidade
00:00 -8°C° 0.1 mm 7 m/s 718 mmHg 87%
01:00 -8°C° 0.1 mm 7 m/s 718 mmHg 88%
02:00 -8°C° 0.1 mm 6 m/s 718 mmHg 88%
03:00 -7°C° 0.1 mm 5 m/s 718 mmHg 90%
04:00 -8°C° 0.1 mm 4 m/s 718 mmHg 91%
05:00 -7°C° 0.1 mm 3 m/s 718 mmHg 92%
06:00 -7°C° 0.1 mm 3 m/s 718 mmHg 93%
07:00 -6°C° 0.1 mm 2 m/s 718 mmHg 94%
08:00 -6°C° 0.1 mm 2 m/s 719 mmHg 94%
09:00 -4°C° 0 mm 1 m/s 719 mmHg 93%
10:00 -3°C° 0 mm 1 m/s 719 mmHg 92%
11:00 -2°C° 0 mm 1 m/s 719 mmHg 91%
12:00 -2°C° 0 mm 1 m/s 718 mmHg 90%
13:00 -1°C° 0 mm 1 m/s 718 mmHg 89%
14:00 -2°C° 0 mm 0 m/s 717 mmHg 88%
15:00 -2°C° 0 mm 1 m/s 717 mmHg 88%
16:00 -3°C° 0 mm 1 m/s 717 mmHg 88%
17:00 -4°C° 0 mm 1 m/s 716 mmHg 89%
18:00 -4°C° 0 mm 1 m/s 716 mmHg 86%
19:00 -7°C° 0 mm 2 m/s 716 mmHg 84%
20:00 -7°C° 0 mm 2 m/s 716 mmHg 81%
21:00 -7°C° 0 mm 2 m/s 716 mmHg 78%
22:00 -7°C° 0 mm 2 m/s 716 mmHg 75%
23:00 -7°C° 0 mm 2 m/s 716 mmHg 72%

25 Janeiro, Segunda-feira

Tempo Temperatura Precipitação Vento Pressão Humidade
00:00 -7°C° 0 mm 2 m/s 716 mmHg 71%
01:00 -7°C° 0 mm 2 m/s 715 mmHg 69%
02:00 -7°C° 0 mm 2 m/s 715 mmHg 68%
03:00 -7°C° 0 mm 2 m/s 715 mmHg 67%
04:00 -7°C° 0 mm 2 m/s 715 mmHg 66%
05:00 -7°C° 0 mm 2 m/s 714 mmHg 65%
06:00 -7°C° 0 mm 2 m/s 714 mmHg 66%
07:00 -7°C° 0 mm 2 m/s 715 mmHg 66%
08:00 -7°C° 0 mm 2 m/s 715 mmHg 66%
09:00 -6°C° 0 mm 2 m/s 715 mmHg 69%
10:00 -5°C° 0 mm 2 m/s 715 mmHg 72%
11:00 -3°C° 0 mm 2 m/s 715 mmHg 75%
12:00 -1°C° 0 mm 1 m/s 715 mmHg 77%
13:00 0°C° 0 mm 1 m/s 715 mmHg 78%
14:00 0°C° 0 mm 1 m/s 714 mmHg 80%
15:00 -1°C° 0 mm 1 m/s 714 mmHg 80%
16:00 -4°C° 0 mm 2 m/s 714 mmHg 80%
17:00 -6°C° 0 mm 2 m/s 714 mmHg 80%
18:00 -6°C° 0 mm 2 m/s 714 mmHg 79%
19:00 -7°C° 0 mm 2 m/s 714 mmHg 77%
20:00 -7°C° 0 mm 2 m/s 714 mmHg 76%
21:00 -7°C° 0 mm 2 m/s 714 mmHg 74%
22:00 -7°C° 0 mm 2 m/s 714 mmHg 73%
23:00 -7°C° 0 mm 2 m/s 714 mmHg 72%

26 Janeiro, Terça-feira

Tempo Temperatura Precipitação Vento Pressão Humidade
00:00 -7°C° 0 mm 2 m/s 714 mmHg 70%
01:00 -7°C° 0 mm 2 m/s 714 mmHg 69%
02:00 -7°C° 0 mm 2 m/s 713 mmHg 68%
03:00 -7°C° 0 mm 2 m/s 713 mmHg 66%
04:00 -7°C° 0 mm 2 m/s 713 mmHg 65%
05:00 -7°C° 0 mm 2 m/s 713 mmHg 63%
06:00 -7°C° 0 mm 2 m/s 714 mmHg 63%
07:00 -7°C° 0 mm 2 m/s 714 mmHg 62%
08:00 -7°C° 0 mm 2 m/s 714 mmHg 62%
09:00 -5°C° 0 mm 2 m/s 714 mmHg 65%
10:00 -3°C° 0 mm 2 m/s 714 mmHg 69%
11:00 0°C° 0 mm 1 m/s 714 mmHg 72%
12:00 +1°C° 0 mm 1 m/s 714 mmHg 75%
13:00 +1°C° 0 mm 1 m/s 714 mmHg 77%
14:00 +2°C° 0 mm 1 m/s 714 mmHg 79%
15:00 +1°C° 0 mm 1 m/s 713 mmHg 78%
16:00 -3°C° 0 mm 2 m/s 713 mmHg 76%
17:00 -4°C° 0 mm 2 m/s 713 mmHg 75%
18:00 -4°C° 0 mm 2 m/s 713 mmHg 73%
19:00 -5°C° 0 mm 2 m/s 713 mmHg 71%
20:00 -5°C° 0 mm 2 m/s 714 mmHg 69%
21:00 -5°C° 0 mm 2 m/s 714 mmHg 68%
22:00 -5°C° 0 mm 2 m/s 714 mmHg 66%
23:00 -5°C° 0 mm 2 m/s 714 mmHg 64%

27 Janeiro, Quarta-feira

Tempo Temperatura Precipitação Vento Pressão Humidade
00:00 -5°C° 0 mm 2 m/s 713 mmHg 62%
01:00 -5°C° 0 mm 2 m/s 713 mmHg 60%
02:00 -5°C° 0 mm 2 m/s 713 mmHg 58%
03:00 -5°C° 0 mm 2 m/s 713 mmHg 58%
04:00 -5°C° 0 mm 2 m/s 713 mmHg 57%
05:00 -5°C° 0 mm 2 m/s 713 mmHg 56%
06:00 -5°C° 0 mm 2 m/s 713 mmHg 56%
07:00 -5°C° 0 mm 2 m/s 713 mmHg 56%
08:00 -5°C° 0 mm 2 m/s 714 mmHg 56%
09:00 -4°C° 0 mm 2 m/s 714 mmHg 61%
10:00 -2°C° 0 mm 2 m/s 714 mmHg 65%
11:00 -1°C° 0 mm 2 m/s 714 mmHg 69%
12:00 +1°C° 0 mm 2 m/s 714 mmHg 72%
13:00 +1°C° 0 mm 2 m/s 714 mmHg 74%
14:00 +3°C° 0 mm 1 m/s 713 mmHg 77%
15:00 +1°C° 0 mm 2 m/s 713 mmHg 74%
16:00 -1°C° 0 mm 2 m/s 713 mmHg 72%
17:00 -3°C° 0 mm 2 m/s 713 mmHg 69%
18:00 -3°C° 0 mm 2 m/s 713 mmHg 66%
19:00 -5°C° 0 mm 3 m/s 713 mmHg 64%
20:00 -5°C° 0 mm 3 m/s 713 mmHg 61%
21:00 -5°C° 0 mm 3 m/s 713 mmHg 59%
22:00 -5°C° 0 mm 3 m/s 713 mmHg 57%
23:00 -5°C° 0 mm 3 m/s 713 mmHg 54%
Mostrar mais